C/2017 S6 ( Catalina )

Japanese version
Home page
Updated on August 28, 2018

---------------------------------------------------------------------

* Profile

Discovery Date September 30, 2017
Magnitude 17.9 mag
Discoverer G. J. Leonard (Catalina Sky Survey)

* Pictures

* Orbital Elements

Epoch 2018 Feb. 11.0 TT = JDT 2458160.5
T 2018 Feb. 26.93606 TT                                 MPCW
q   1.5429085            (2000.0)            P               Q
z  -0.0008522      Peri.  134.68867     +0.93845380     -0.00782702
 +/-0.0000178      Node   130.87470     -0.23728706     -0.74109653
e   1.0013148      Incl.  152.82684     +0.25099666     -0.67135286
From 214 observations 2017 Sept. 30-2018 Jan. 19, mean residual 0".6.

* Finding Charts

* Magnitudes Graph

        m1 = 12.5 + 5 log d + 10.0 log r

---------------------------------------------------------------------

The orbital elements are published on M.P.E.C. 2018-F152.
The charts are made with StellaNavigator Ver.10 (AstroArts).
The magnitudes graphs are made with Comet for Windows.

---------------------------------------------------------------------

Copyright(C) Seiichi Yoshida (comet@aerith.net). All rights reserved.